Location: Olomouc
(49.5830°N, 17.2500°E)
Time: 03:47:26
(UTC+02:00)

ISS - Pass Details

Date: 20 May 2021
Orbit: 417 x 422 km, 51.6° (Epoch: 13 June)

Event Time Altitude Azimuth Distance (km) Brightness Sun altitude
Rises 22:55:36 0° 278° (W) 2,366 0.6 -16.0°
Reaches altitude 10° 22:57:43 10° 282° (WNW) 1,503 -0.4 -16.1°
Maximum altitude 23:01:03 59° 3° (N) 493 -3.2 -16.4°
Enters shadow 23:04:12 11° 83° (E) 1,423 -1.3 -16.6°
